| time (UTC) | temp F | wind direction | speed knots | gust knots | rain 1hr in | rain 24hr in | rain mn in | humidity % | barometer mb |
| 20260504090104 | 69 | 323 | 3.5 | 8.7 | 0.00 | 0.00 | 0.00 | 76 | 1012.4 |
| 20260504081553 | 66 | 329 | 0.9 | 7.8 | 0.00 | 0.00 | 0.00 | 82 | 1012.5 |
| 20260504044609 | 65 | 331 | 4.3 | 8.7 | 0.00 | 0.00 | 0.00 | 85 | 1012.0 |
| 20260504043055 | 65 | 294 | 3.5 | 7.8 | 0.00 | 0.00 | 0.00 | 85 | 1011.9 |
| 20260504041557 | 65 | 336 | 3.5 | 7.0 | 0.00 | 0.00 | 0.00 | 85 | 1011.8 |
| 20260504040113 | 65 | 0 | 0.0 | 2.6 | 0.00 | 0.00 | 0.00 | 84 | 1011.8 |
| 20260504034610 | 65 | 0 | 0.0 | 0.0 | 0.00 | 0.00 | 0.00 | 84 | 1012.0 |
| 20260504033053 | 65 | 0 | 0.9 | 1.7 | 0.00 | 0.00 | 0.00 | 84 | 1012.2 |
| 20260504031553 | 65 | 0 | 0.0 | 0.9 | 0.00 | 0.00 | 0.00 | 84 | 1012.2 |
| 20260504030056 | 65 | 0 | 0.0 | 1.7 | 0.00 | 0.00 | 0.00 | 84 | 1012.3 |
| 20260504024605 | 65 | 0 | 1.7 | 7.8 | 0.00 | 0.00 | 0.00 | 84 | 1012.3 |
| 20260504023054 | 66 | 327 | 4.3 | 8.7 | 0.00 | 0.00 | 0.00 | 84 | 1012.3 |
| 20260504021556 | 66 | 324 | 5.2 | 9.6 | 0.00 | 0.00 | 0.00 | 84 | 1012.3 |
| 20260504020058 | 66 | 327 | 6.1 | 10.4 | 0.00 | 0.00 | 0.00 | 84 | 1012.4 |
| 20260504014554 | 66 | 336 | 4.3 | 9.6 | 0.00 | 0.00 | 0.00 | 85 | 1012.5 |
| 20260504013103 | 66 | 344 | 3.5 | 8.7 | 0.00 | 0.00 | 0.00 | 85 | 1012.7 |
| 20260504011555 | 66 | 307 | 4.3 | 9.6 | 0.00 | 0.00 | 0.00 | 85 | 1012.7 |
| 20260504010101 | 66 | 324 | 4.3 | 8.7 | 0.00 | 0.00 | 0.00 | 85 | 1012.7 |
| 20260504004606 | 66 | 342 | 0.9 | 7.0 | 0.00 | 0.00 | 0.00 | 85 | 1012.8 |
| 20260504003051 | 66 | 340 | 1.7 | 7.8 | 0.00 | 0.00 | 0.00 | 85 | 1013.1 |
| 20260504001552 | 66 | 340 | 6.1 | 9.6 | 0.00 | 0.00 | 0.00 | 85 | 1013.1 |
| 20260504000056 | 66 | 296 | 5.2 | 8.7 | 0.00 | 0.00 | 0.00 | 85 | 1013.0 |
| 20260503234549 | 66 | 321 | 1.7 | 7.0 | 0.00 | 0.00 | 0.00 | 85 | 1013.1 |
| 20260503233055 | 66 | 330 | 0.9 | 2.6 | 0.00 | 0.00 | 0.00 | 85 | 1013.2 |
| 20260503231549 | 66 | 304 | 1.7 | 3.5 | 0.00 | 0.00 | 0.00 | 85 | 1013.4 |
| 20260503230055 | 66 | 302 | 0.9 | 4.3 | 0.00 | 0.00 | 0.00 | 85 | 1013.4 |
| 20260503224553 | 66 | 313 | 1.7 | 3.5 | 0.00 | 0.00 | 0.00 | 85 | 1013.5 |
| 20260503223052 | 66 | 331 | 0.9 | 2.6 | 0.00 | 0.00 | 0.00 | 85 | 1013.5 |
| 20260503221553 | 66 | 333 | 0.9 | 2.6 | 0.00 | 0.00 | 0.00 | 85 | 1013.5 |
| 20260503220109 | 66 | 333 | 1.7 | 4.3 | 0.00 | 0.00 | 0.00 | 85 | 1013.7 |
| 20260503214550 | 66 | 309 | 0.9 | 3.5 | 0.00 | 0.00 | 0.00 | 85 | 1013.9 |
| 20260503213048 | 66 | 300 | 0.9 | 3.5 | 0.00 | 0.00 | 0.00 | 84 | 1013.9 |
| 20260503211552 | 66 | 296 | 1.7 | 5.2 | 0.00 | 0.00 | 0.00 | 84 | 1013.9 |
| 20260503210052 | 66 | 275 | 0.9 | 3.5 | 0.00 | 0.00 | 0.00 | 84 | 1013.8 |
| 20260503204551 | 66 | 273 | 1.7 | 3.5 | 0.00 | 0.00 | 0.00 | 84 | 1013.8 |
| 20260503203054 | 66 | 277 | 2.6 | 5.2 | 0.00 | 0.00 | 0.00 | 84 | 1013.6 |
| 20260503201553 | 66 | 271 | 1.7 | 6.1 | 0.00 | 0.00 | 0.00 | 84 | 1013.6 |
| 20260503200056 | 66 | 277 | 1.7 | 5.2 | 0.00 | 0.00 | 0.00 | 84 | 1013.4 |
| 20260503194551 | 66 | 230 | 3.5 | 7.8 | 0.00 | 0.00 | 0.00 | 84 | 1013.0 |
| 20260503193050 | 66 | 221 | 3.5 | 7.8 | 0.00 | 0.00 | 0.00 | 83 | 1012.8 |
| 20260503191557 | 66 | 227 | 2.6 | 7.0 | 0.00 | 0.00 | 0.00 | 83 | 1012.4 |
| 20260503190048 | 66 | 234 | 3.5 | 7.8 | 0.00 | 0.00 | 0.00 | 83 | 1012.2 |
| 20260503184559 | 66 | 205 | 2.6 | 7.8 | 0.00 | 0.00 | 0.00 | 83 | 1012.0 |
| 20260503183055 | 66 | 215 | 4.3 | 8.7 | 0.00 | 0.00 | 0.00 | 83 | 1012.0 |
| 20260503181553 | 66 | 240 | 4.3 | 8.7 | 0.00 | 0.00 | 0.00 | 83 | 1011.9 |
| 20260503180109 | 66 | 226 | 4.3 | 8.7 | 0.00 | 0.00 | 0.00 | 83 | 1011.8 |
| 20260503174556 | 67 | 236 | 3.5 | 7.8 | 0.00 | 0.00 | 0.00 | 82 | 1011.7 |
| 20260503173056 | 67 | 250 | 4.3 | 7.8 | 0.00 | 0.00 | 0.00 | 82 | 1011.7 |
| 20260503171550 | 67 | 248 | 4.3 | 7.8 | 0.00 | 0.00 | 0.00 | 82 | 1011.4 |
| 20260503160107 | 67 | 267 | 6.1 | 8.7 | 0.00 | 0.00 | 0.00 | 80 | 1011.7 |